TimeCDT,TemperatureF,Dew PointF,Humidity,Sea Level PressureIn,VisibilityMPH,Wind Direction,Wind SpeedMPH,Gust SpeedMPH,PrecipitationIn,Events,Conditions,WindDirDegrees,DateUTC
1:00 AM,-5,-13,55,30.04,15,West,2.3,,,,Overcast,280,2012-11-02 06:00:00
1:00 AM,-5.8,-13.0,71,30.04,15.0,NW,2.3,-,N/A,,Overcast,310,2012-11-02 06:00:00
2:00 AM,-5.8,-13.0,71,30.04,15.0,WNW,2.3,-,N/A,Snow,Low Drifting Snow,290,2012-11-02 07:00:00
3:00 AM,-5.8,-14.8,65,30.03,15.0,NW,4.6,-,N/A,Snow,Low Drifting Snow,310,2012-11-02 08:00:00
4:00 AM,-4.0,-13.0,65,30.03,15.0,East,2.3,-,N/A,Snow,Low Drifting Snow,90,2012-11-02 09:00:00
5:00 AM,-0.4,-11.2,60,30.01,15.0,Calm,Calm,-,N/A,Snow,Low Drifting Snow,0,2012-11-02 10:00:00
6:00 AM,-0.4,-11.2,60,30.00,15.0,SE,3.5,-,N/A,,Partly Cloudy,140,2012-11-02 11:00:00
7:00 AM,-5,-14,52,29.99,15,SW,3.5,,,,Clear,230,2012-11-02 12:00:00
7:00 AM,-4.0,-13.0,65,29.99,15.0,South,4.6,-,N/A,,Partly Cloudy,190,2012-11-02 12:00:00
8:00 AM,-7.6,-14.8,71,29.98,15.0,North,3.5,-,N/A,,Partly Cloudy,360,2012-11-02 13:00:00
9:00 AM,-14.8,-23.8,64,29.98,15.0,West,2.3,-,N/A,,Partly Cloudy,280,2012-11-02 14:00:00
10:00 AM,-9.4,-20.2,59,29.96,15.0,Calm,Calm,-,N/A,,Partly Cloudy,0,2012-11-02 15:00:00
11:00 AM,-9.4,-18.4,65,29.96,15.0,Calm,Calm,-,N/A,,Mostly Cloudy,0,2012-11-02 16:00:00
12:00 PM,-7.6,-14.8,71,29.94,15.0,Calm,Calm,-,N/A,,Mostly Cloudy,0,2012-11-02 17:00:00
1:00 PM,-6,-14,54,29.94,15,Calm,Calm,,,,Mostly Cloudy,,2012-11-02 18:00:00
1:00 PM,-5.8,-14.8,65,29.94,15.0,Calm,Calm,-,N/A,,Mostly Cloudy,0,2012-11-02 18:00:00
2:00 PM,-5.8,-13.0,71,29.93,15.0,Calm,Calm,-,N/A,,Overcast,0,2012-11-02 19:00:00
3:00 PM,-7.6,-14.8,71,29.93,15.0,Calm,Calm,-,N/A,,Overcast,0,2012-11-02 20:00:00
4:00 PM,-7.6,-14.8,71,29.92,15.0,Calm,Calm,-,N/A,,Overcast,0,2012-11-02 21:00:00
5:00 PM,-7.6,-14.8,71,29.91,15.0,Calm,Calm,-,N/A,,Overcast,0,2012-11-02 22:00:00
6:00 PM,-5.8,-14.8,65,29.91,15.0,Calm,Calm,-,N/A,,Overcast,0,2012-11-02 23:00:00
6:17 PM,-9999,-9999,N/A,-9999,15.0,South,3.5,-,N/A,,Unknown,170,2012-11-02 23:17:00
6:47 PM,-9999,-9999,N/A,-9999,15.0,South,2.3,-,N/A,,Overcast,170,2012-11-02 23:47:00
7:00 PM,-7,-14,57,29.91,15,SSE,2.3,,,Snow,Light Snow,160,2012-11-03 00:00:00
7:00 PM,-5.8,-14.8,65,29.91,15.0,SSE,2.3,-,N/A,,Overcast,160,2012-11-03 00:00:00
8:00 PM,-5.8,-13.0,71,29.91,15.0,NE,2.3,-,N/A,,Mostly Cloudy,50,2012-11-03 01:00:00
9:00 PM,-7.6,-14.8,71,29.90,15.0,Calm,Calm,-,N/A,,Mostly Cloudy,0,2012-11-03 02:00:00
10:00 PM,-9.4,-16.6,71,29.90,15.0,SE,5.8,-,N/A,,Scattered Clouds,140,2012-11-03 03:00:00